Time,TemperatureF,DewpointF,PressureIn,WindDirection,WindDirectionDegrees,WindSpeedMPH,WindSpeedGustMPH,Humidity,HourlyPrecipIn,Conditions,Clouds,dailyrainin,SoftwareType,DateUTC
2013-03-11 00:00:00,25.8,22.7,29.39,NE,45,3.1,5.8,88,0.00,,,-99.99,VWS V12.07,2013-03-11 05:00:00,
2013-03-11 00:05:00,25.8,22.7,29.38,NE,45,7.6,7.6,88,0.00,,,-99.99,VWS V12.07,2013-03-11 05:05:00,
2013-03-11 00:10:00,25.8,22.7,29.38,NE,45,4.4,7.6,88,0.00,,,-99.99,VWS V12.07,2013-03-11 05:10:00,
2013-03-11 00:15:00,25.8,22.7,29.38,NE,45,3.1,7.6,88,0.00,,,-99.99,VWS V12.07,2013-03-11 05:15:00,
2013-03-11 00:20:00,25.8,22.7,29.37,NE,45,7.1,7.8,88,0.00,,,-99.99,VWS V12.07,2013-03-11 05:20:00,
2013-03-11 00:25:00,25.8,22.7,29.37,NE,45,0.0,7.8,88,0.00,,,-99.99,VWS V12.07,2013-03-11 05:25:00,
2013-03-11 00:30:00,25.8,23.0,29.37,NE,45,7.3,7.8,89,0.00,,,-99.99,VWS V12.07,2013-03-11 05:30:00,
2013-03-11 00:35:00,25.8,23.0,29.36,NE,45,6.7,6.7,89,0.00,,,-99.99,VWS V12.07,2013-03-11 05:35:00,
2013-03-11 00:40:00,25.8,23.0,29.36,NE,45,10.9,10.9,89,0.00,,,-99.99,VWS V12.07,2013-03-11 05:40:00,
2013-03-11 00:45:00,25.8,23.0,29.35,NE,45,5.8,10.9,89,0.00,,,-99.99,VWS V12.07,2013-03-11 05:45:00,
2013-03-11 00:50:00,25.8,23.0,29.35,NE,45,5.3,9.8,89,0.00,,,-99.99,VWS V12.07,2013-03-11 05:50:00,
2013-03-11 00:55:00,25.8,23.0,29.34,NE,45,9.8,9.8,89,0.00,,,-99.99,VWS V12.07,2013-03-11 05:55:00,
2013-03-11 01:00:00,25.8,23.0,29.34,NE,45,4.4,9.8,89,0.00,,,-99.99,VWS V12.07,2013-03-11 06:00:00,
2013-03-11 01:05:00,25.8,0.0,29.34,North,0,0.0,1.5,0,0.00,,,-99.99,VWS V12.07,2013-03-11 06:05:00,
2013-03-11 01:10:00,25.8,23.0,29.34,NE,45,0.0,3.5,89,0.00,,,-99.99,VWS V12.07,2013-03-11 06:10:00,
2013-03-11 01:15:00,25.8,23.0,29.33,NE,45,0.0,3.5,89,0.00,,,-99.99,VWS V12.07,2013-03-11 06:15:00,
2013-03-11 01:20:00,25.8,23.0,29.33,NE,45,5.8,5.8,89,0.00,,,-99.99,VWS V12.07,2013-03-11 06:20:00,
2013-03-11 01:25:00,25.8,23.0,29.33,NE,45,7.1,7.1,89,0.00,,,-99.99,VWS V12.07,2013-03-11 06:25:00,
2013-03-11 01:30:00,25.8,23.0,29.33,NE,45,6.0,7.1,89,0.00,,,-99.99,VWS V12.07,2013-03-11 06:30:00,
2013-03-11 01:35:00,25.8,23.0,29.33,NE,45,0.0,0.0,89,0.00,,,-99.99,VWS V12.07,2013-03-11 06:35:00,
2013-03-11 01:40:00,25.8,23.0,29.32,NE,45,4.6,4.6,89,0.00,,,-99.99,VWS V12.07,2013-03-11 06:40:00,
2013-03-11 01:45:00,25.8,23.0,29.32,NE,45,2.4,5.1,89,0.00,,,-99.99,VWS V12.07,2013-03-11 06:45:00,
2013-03-11 01:50:00,25.8,23.0,29.32,NE,45,4.9,4.9,89,0.00,,,-99.99,VWS V12.07,2013-03-11 06:50:00,
2013-03-11 01:55:00,25.8,23.0,29.32,NE,45,0.0,6.0,89,0.00,,,-99.99,VWS V12.07,2013-03-11 06:55:00,
2013-03-11 02:05:00,25.8,23.0,29.31,NE,45,0.0,0.0,89,0.00,,,-99.99,VWS V12.07,2013-03-11 07:05:00,
2013-03-11 02:10:00,26.0,23.2,29.31,NE,45,1.3,5.3,89,0.00,,,-99.99,VWS V12.07,2013-03-11 07:10:00,
2013-03-11 02:15:00,26.0,23.2,29.31,NE,45,0.0,5.3,89,0.00,,,-99.99,VWS V12.07,2013-03-11 07:15:00,
2013-03-11 02:20:00,26.0,23.2,29.31,NE,45,1.1,1.1,89,0.00,,,-99.99,VWS V12.07,2013-03-11 07:20:00,
2013-03-11 02:25:00,26.0,23.2,29.31,NE,45,0.0,4.2,89,0.00,,,-99.99,VWS V12.07,2013-03-11 07:25:00,
2013-03-11 02:30:00,26.0,23.5,29.31,NE,45,4.6,4.6,90,0.00,,,-99.99,VWS V12.07,2013-03-11 07:30:00,
2013-03-11 02:35:00,26.0,23.5,29.30,NE,45,0.0,0.0,90,0.00,,,-99.99,VWS V12.07,2013-03-11 07:35:00,
2013-03-11 02:40:00,26.0,23.5,29.30,NE,45,0.0,0.0,90,0.00,,,-99.99,VWS V12.07,2013-03-11 07:40:00,
2013-03-11 02:45:00,26.2,23.7,29.30,NE,45,6.0,6.0,90,0.00,,,-99.99,VWS V12.07,2013-03-11 07:45:00,
2013-03-11 02:50:00,26.2,23.7,29.29,NE,45,2.0,3.8,90,0.00,,,-99.99,VWS V12.07,2013-03-11 07:50:00,
2013-03-11 02:55:00,26.2,23.7,29.29,NE,45,2.4,3.8,90,0.00,,,-99.99,VWS V12.07,2013-03-11 07:55:00,
2013-03-11 03:00:00,26.2,23.7,29.29,NE,45,0.0,3.8,90,0.00,,,-99.99,VWS V12.07,2013-03-11 08:00:00,
2013-03-11 03:05:00,26.2,23.7,29.28,NE,45,10.0,10.0,90,0.00,,,-99.99,VWS V12.07,2013-03-11 08:05:00,
2013-03-11 03:10:00,26.2,23.7,29.28,NE,45,3.1,10.0,90,0.00,,,-99.99,VWS V12.07,2013-03-11 08:10:00,
2013-03-11 03:15:00,26.2,23.7,29.27,NE,45,0.0,10.0,90,0.00,,,-99.99,VWS V12.07,2013-03-11 08:15:00,
2013-03-11 03:20:00,26.2,23.7,29.27,NE,45,0.0,10.5,90,0.00,,,-99.99,VWS V12.07,2013-03-11 08:20:00,
2013-03-11 03:25:00,26.2,23.7,29.27,NE,45,5.5,10.5,90,0.00,,,-99.99,VWS V12.07,2013-03-11 08:25:00,
2013-03-11 03:30:00,26.2,23.7,29.26,NE,45,0.0,10.5,90,0.00,,,-99.99,VWS V12.07,2013-03-11 08:30:00,
2013-03-11 03:35:00,26.2,23.7,29.26,NE,45,0.0,3.3,90,0.00,,,-99.99,VWS V12.07,2013-03-11 08:35:00,
2013-03-11 03:40:00,26.2,23.7,29.26,NE,45,7.6,7.6,90,0.00,,,-99.99,VWS V12.07,2013-03-11 08:40:00,
2013-03-11 03:45:00,26.2,23.7,29.26,NE,45,0.8,7.6,90,0.00,,,-99.99,VWS V12.07,2013-03-11 08:45:00,
2013-03-11 03:50:00,26.2,23.4,29.25,NE,45,6.9,6.9,89,0.00,,,-99.99,VWS V12.07,2013-03-11 08:50:00,
2013-03-11 03:55:00,26.2,23.4,29.25,NE,45,0.0,6.9,89,0.00,,,-99.99,VWS V12.07,2013-03-11 08:55:00,
2013-03-11 04:00:00,26.2,23.4,29.25,NE,45,0.0,6.9,89,0.00,,,-99.99,VWS V12.07,2013-03-11 09:00:00,
2013-03-11 04:05:00,26.2,23.4,29.24,NE,45,0.0,0.0,89,0.00,,,-99.99,VWS V12.07,2013-03-11 09:05:00,
2013-03-11 04:10:00,26.2,23.4,29.24,NE,45,0.0,0.0,89,0.00,,,-99.99,VWS V12.07,2013-03-11 09:10:00,
2013-03-11 04:15:00,26.2,23.4,29.24,NE,45,2.9,2.9,89,0.00,,,-99.99,VWS V12.07,2013-03-11 09:15:00,
2013-03-11 04:20:00,26.2,23.4,29.24,NE,45,0.0,4.9,89,0.00,,,-99.99,VWS V12.07,2013-03-11 09:20:00,
2013-03-11 04:25:00,26.2,23.4,29.24,NE,45,0.0,4.9,89,0.00,,,-99.99,VWS V12.07,2013-03-11 09:25:00,
2013-03-11 04:30:00,26.2,23.4,29.24,NE,45,0.0,4.9,89,0.00,,,-99.99,VWS V12.07,2013-03-11 09:30:00,
2013-03-11 04:35:00,26.2,23.4,29.24,NE,45,4.4,4.4,89,0.00,,,-99.99,VWS V12.07,2013-03-11 09:35:00,
2013-03-11 04:40:00,26.2,23.4,29.24,NE,45,0.0,4.4,89,0.00,,,-99.99,VWS V12.07,2013-03-11 09:40:00,
2013-03-11 04:45:00,26.2,23.4,29.25,NE,45,0.0,4.4,89,0.00,,,-99.99,VWS V12.07,2013-03-11 09:45:00,
2013-03-11 04:50:00,26.2,23.4,29.25,NE,45,0.0,0.0,89,0.00,,,-99.99,VWS V12.07,2013-03-11 09:50:00,
2013-03-11 04:55:00,26.2,23.4,29.25,NE,45,0.0,0.0,89,0.00,,,-99.99,VWS V12.07,2013-03-11 09:55:00,
2013-03-11 05:00:00,26.2,23.4,29.25,NE,45,0.0,3.5,89,0.00,,,-99.99,VWS V12.07,2013-03-11 10:00:00,
2013-03-11 05:10:00,26.2,23.4,29.25,NE,45,0.4,4.9,89,0.00,,,-99.99,VWS V12.07,2013-03-11 10:10:00,
2013-03-11 05:15:00,26.2,23.4,29.25,NE,45,0.0,4.9,89,0.00,,,-99.99,VWS V12.07,2013-03-11 10:15:00,
2013-03-11 05:20:00,26.2,23.4,29.25,NE,45,0.0,1.1,89,0.00,,,-99.99,VWS V12.07,2013-03-11 10:20:00,
2013-03-11 05:25:00,26.2,23.4,29.25,NE,45,0.0,1.1,89,0.00,,,-99.99,VWS V12.07,2013-03-11 10:25:00,
2013-03-11 05:30:00,26.2,23.4,29.24,NE,45,0.0,1.1,89,0.00,,,-99.99,VWS V12.07,2013-03-11 10:30:00,
2013-03-11 05:35:00,26.2,23.4,29.24,NE,45,0.0,0.0,89,0.00,,,-99.99,VWS V12.07,2013-03-11 10:35:00,
2013-03-11 05:40:00,26.2,23.4,29.24,NE,45,6.2,6.2,89,0.00,,,-99.99,VWS V12.07,2013-03-11 10:40:00,
2013-03-11 05:45:00,26.2,23.4,29.24,NE,45,0.0,6.2,89,0.00,,,-99.99,VWS V12.07,2013-03-11 10:45:00,
2013-03-11 05:50:00,26.2,23.4,29.24,NE,45,0.0,0.0,89,0.00,,,-99.99,VWS V12.07,2013-03-11 10:50:00,
2013-03-11 05:55:00,26.2,23.4,29.24,NE,45,6.0,6.0,89,0.00,,,-99.99,VWS V12.07,2013-03-11 10:55:00,
2013-03-11 06:00:00,26.2,23.4,29.24,NE,45,0.0,6.0,89,0.00,,,-99.99,VWS V12.07,2013-03-11 11:00:00,
2013-03-11 06:05:00,26.0,23.2,29.24,NE,45,0.0,0.0,89,0.00,,,-99.99,VWS V12.07,2013-03-11 11:05:00,
2013-03-11 06:10:00,26.0,23.2,29.24,NE,45,4.2,4.2,89,0.00,,,-99.99,VWS V12.07,2013-03-11 11:10:00,
2013-03-11 06:15:00,26.0,23.2,29.24,NE,45,0.0,4.2,89,0.00,,,-99.99,VWS V12.07,2013-03-11 11:15:00,
2013-03-11 06:20:00,26.0,23.2,29.24,NE,45,0.0,0.0,89,0.00,,,-99.99,VWS V12.07,2013-03-11 11:20:00,
2013-03-11 06:25:00,26.0,23.2,29.24,NE,45,6.7,6.7,89,0.00,,,-99.99,VWS V12.07,2013-03-11 11:25:00,
2013-03-11 06:30:00,26.0,23.2,29.24,NE,45,0.0,6.7,89,0.00,,,-99.99,VWS V12.07,2013-03-11 11:30:00,
2013-03-11 06:35:00,26.0,23.2,29.24,NE,45,4.0,4.0,89,0.00,,,-99.99,VWS V12.07,2013-03-11 11:35:00,
2013-03-11 06:40:00,26.0,23.2,29.24,NE,45,0.0,4.0,89,0.00,,,-99.99,VWS V12.07,2013-03-11 11:40:00,
2013-03-11 06:45:00,26.0,23.2,29.24,NE,45,0.0,4.0,89,0.00,,,-99.99,VWS V12.07,2013-03-11 11:45:00,
2013-03-11 06:50:00,26.0,23.2,29.24,NE,45,0.0,0.0,89,0.00,,,-99.99,VWS V12.07,2013-03-11 11:50:00,
2013-03-11 06:55:00,26.0,23.2,29.24,NE,45,0.0,0.0,89,0.00,,,-99.99,VWS V12.07,2013-03-11 11:55:00,
2013-03-11 07:00:00,26.0,22.9,29.24,NE,45,1.3,2.2,88,0.00,,,-99.99,VWS V12.07,2013-03-11 12:00:00,
2013-03-11 07:05:00,26.0,22.9,29.24,NE,45,4.4,4.4,88,0.00,,,-99.99,VWS V12.07,2013-03-11 12:05:00,
2013-03-11 07:10:00,26.0,22.9,29.24,NE,45,0.0,4.9,88,0.00,,,-99.99,VWS V12.07,2013-03-11 12:10:00,
2013-03-11 07:15:00,25.8,22.7,29.24,NE,45,0.0,7.1,88,0.00,,,-99.99,VWS V12.07,2013-03-11 12:15:00,
2013-03-11 07:20:00,25.8,22.7,29.24,NE,45,0.0,6.0,88,0.00,,,-99.99,VWS V12.07,2013-03-11 12:20:00,
2013-03-11 07:30:00,25.8,22.7,29.24,NE,45,0.0,6.0,88,0.00,,,-99.99,VWS V12.07,2013-03-11 12:30:00,
2013-03-11 07:35:00,25.8,22.7,29.24,NE,45,0.0,0.0,88,0.00,,,-99.99,VWS V12.07,2013-03-11 12:35:00,
2013-03-11 07:40:00,25.8,22.7,29.24,NE,45,0.0,4.9,88,0.00,,,-99.99,VWS V12.07,2013-03-11 12:40:00,
2013-03-11 07:45:00,25.7,22.6,29.25,NE,45,0.0,5.5,88,0.00,,,-99.99,VWS V12.07,2013-03-11 12:45:00,
2013-03-11 07:50:00,25.7,22.6,29.24,NE,45,2.2,6.2,88,0.00,,,-99.99,VWS V12.07,2013-03-11 12:50:00,
2013-03-11 07:55:00,25.7,22.6,29.25,NE,45,0.0,6.2,88,0.00,,,-99.99,VWS V12.07,2013-03-11 12:55:00,
2013-03-11 08:00:00,25.7,22.6,29.25,NE,45,0.0,6.2,88,0.00,,,-99.99,VWS V12.07,2013-03-11 13:00:00,
2013-03-11 08:05:00,25.7,22.6,29.25,NE,45,4.2,4.6,88,0.00,,,-99.99,VWS V12.07,2013-03-11 13:05:00,
2013-03-11 08:10:00,25.7,22.6,29.25,NE,45,0.0,4.6,88,0.00,,,-99.99,VWS V12.07,2013-03-11 13:10:00,
2013-03-11 08:15:00,25.7,22.6,29.25,NE,45,0.0,4.6,88,0.00,,,-99.99,VWS V12.07,2013-03-11 13:15:00,
2013-03-11 08:20:00,25.7,22.6,29.25,NE,45,0.0,3.3,88,0.00,,,-99.99,VWS V12.07,2013-03-11 13:20:00,
2013-03-11 08:25:00,25.7,22.6,29.25,NE,45,0.0,4.6,88,0.00,,,-99.99,VWS V12.07,2013-03-11 13:25:00,
2013-03-11 08:30:00,25.7,22.6,29.26,NE,45,5.5,5.8,88,0.00,,,-99.99,VWS V12.07,2013-03-11 13:30:00,
2013-03-11 08:35:00,25.7,22.6,29.25,NE,45,4.4,4.4,88,0.00,,,-99.99,VWS V12.07,2013-03-11 13:35:00,
2013-03-11 08:40:00,25.7,22.6,29.26,NE,45,0.0,4.4,88,0.00,,,-99.99,VWS V12.07,2013-03-11 13:40:00,
2013-03-11 08:45:00,25.7,22.6,29.26,NE,45,0.0,5.3,88,0.00,,,-99.99,VWS V12.07,2013-03-11 13:45:00,
2013-03-11 08:50:00,25.7,22.6,29.26,NE,45,7.1,7.1,88,0.00,,,-99.99,VWS V12.07,2013-03-11 13:50:00,
2013-03-11 08:55:00,25.7,22.6,29.25,NE,45,1.3,7.1,88,0.00,,,-99.99,VWS V12.07,2013-03-11 13:55:00,
2013-03-11 09:00:00,25.5,22.5,29.25,NE,45,0.0,7.1,88,0.00,,,-99.99,VWS V12.07,2013-03-11 14:00:00,
2013-03-11 09:05:00,25.7,22.6,29.25,NE,45,0.0,1.5,88,0.00,,,-99.99,VWS V12.07,2013-03-11 14:05:00,
2013-03-11 09:10:00,25.5,22.5,29.25,NE,45,0.0,1.5,88,0.00,,,-99.99,VWS V12.07,2013-03-11 14:10:00,
2013-03-11 09:15:00,25.7,22.6,29.25,NE,45,0.0,4.6,88,0.00,,,-99.99,VWS V12.07,2013-03-11 14:15:00,
2013-03-11 09:20:00,25.7,22.4,29.25,NE,45,6.4,6.4,87,0.00,,,-99.99,VWS V12.07,2013-03-11 14:20:00,
2013-03-11 09:25:00,25.7,22.4,29.25,NE,45,0.0,6.4,87,0.00,,,-99.99,VWS V12.07,2013-03-11 14:25:00,
2013-03-11 09:30:00,25.7,22.4,29.25,NE,45,0.0,6.4,87,0.00,,,-99.99,VWS V12.07,2013-03-11 14:30:00,
2013-03-11 09:35:00,25.7,22.4,29.25,NE,45,0.0,5.5,87,0.00,,,-99.99,VWS V12.07,2013-03-11 14:35:00,
2013-03-11 09:45:00,25.7,22.4,29.26,NE,45,1.5,5.5,87,0.00,,,-99.99,VWS V12.07,2013-03-11 14:45:00,
2013-03-11 09:50:00,25.7,22.4,29.25,NE,45,0.0,5.8,87,0.00,,,-99.99,VWS V12.07,2013-03-11 14:50:00,
2013-03-11 09:55:00,25.7,22.4,29.24,NE,45,0.0,5.8,87,0.00,,,-99.99,VWS V12.07,2013-03-11 14:55:00,
2013-03-11 10:00:00,25.7,22.4,29.24,NE,45,0.0,5.8,87,0.00,,,-99.99,VWS V12.07,2013-03-11 15:00:00,
2013-03-11 10:05:00,25.7,22.4,29.24,NE,45,0.0,0.0,87,0.00,,,-99.99,VWS V12.07,2013-03-11 15:05:00,
2013-03-11 10:10:00,25.7,22.4,29.24,NE,45,0.0,0.0,87,0.00,,,-99.99,VWS V12.07,2013-03-11 15:10:00,
2013-03-11 10:15:00,25.7,22.4,29.24,NE,45,0.8,0.8,87,0.00,,,-99.99,VWS V12.07,2013-03-11 15:15:00,
2013-03-11 10:20:00,25.7,22.4,29.24,NE,45,0.0,0.0,87,0.00,,,-99.99,VWS V12.07,2013-03-11 15:20:00,
2013-03-11 10:25:00,25.8,22.5,29.24,NE,45,0.0,0.0,87,0.00,,,-99.99,VWS V12.07,2013-03-11 15:25:00,
2013-03-11 10:30:00,25.7,22.4,29.23,NE,45,0.0,0.0,87,0.00,,,-99.99,VWS V12.07,2013-03-11 15:30:00,
2013-03-11 10:35:00,25.5,22.2,29.23,NE,45,2.2,2.2,87,0.00,,,-99.99,VWS V12.07,2013-03-11 15:35:00,
2013-03-11 10:40:00,25.7,22.4,29.23,NE,45,0.0,5.8,87,0.00,,,-99.99,VWS V12.07,2013-03-11 15:40:00,
2013-03-11 10:45:00,25.5,22.2,29.23,NE,45,1.3,5.8,87,0.00,,,-99.99,VWS V12.07,2013-03-11 15:45:00,
2013-03-11 10:55:00,25.5,22.2,29.22,NE,45,0.0,1.3,87,0.00,,,-99.99,VWS V12.07,2013-03-11 15:55:00,
2013-03-11 11:00:00,25.5,22.2,29.22,NE,45,0.0,1.3,87,0.00,,,-99.99,VWS V12.07,2013-03-11 16:00:00,
2013-03-11 11:05:00,25.5,22.2,29.22,NE,45,0.0,0.0,87,0.00,,,-99.99,VWS V12.07,2013-03-11 16:05:00,
2013-03-11 11:10:00,25.5,22.2,29.22,NE,45,0.0,0.0,87,0.00,,,-99.99,VWS V12.07,2013-03-11 16:10:00,
2013-03-11 11:15:00,25.5,22.2,29.22,NE,45,0.0,0.0,87,0.00,,,-99.99,VWS V12.07,2013-03-11 16:15:00,
2013-03-11 11:20:00,25.5,22.2,29.21,NE,45,0.0,1.7,87,0.00,,,-99.99,VWS V12.07,2013-03-11 16:20:00,
2013-03-11 11:25:00,25.5,22.2,29.22,NE,45,0.0,8.2,87,0.00,,,-99.99,VWS V12.07,2013-03-11 16:25:00,
2013-03-11 11:30:00,25.5,22.2,29.22,NE,45,0.0,8.2,87,0.00,,,-99.99,VWS V12.07,2013-03-11 16:30:00,
2013-03-11 11:35:00,25.5,22.2,29.22,NE,45,0.0,4.2,87,0.00,,,-99.99,VWS V12.07,2013-03-11 16:35:00,
2013-03-11 11:40:00,25.5,22.2,29.21,NE,45,5.1,5.1,87,0.00,,,-99.99,VWS V12.07,2013-03-11 16:40:00,
2013-03-11 11:45:00,25.5,22.2,29.21,NE,45,4.9,5.1,87,0.00,,,-99.99,VWS V12.07,2013-03-11 16:45:00,
2013-03-11 11:50:00,25.5,21.9,29.21,NE,45,0.0,0.0,86,0.00,,,-99.99,VWS V12.07,2013-03-11 16:50:00,
2013-03-11 11:55:00,25.5,21.9,29.21,NE,45,2.2,4.9,86,0.00,,,-99.99,VWS V12.07,2013-03-11 16:55:00,
2013-03-11 12:00:00,25.7,22.1,29.20,NE,45,1.5,4.9,86,0.00,,,-99.99,VWS V12.07,2013-03-11 17:00:00,
2013-03-11 12:05:00,25.7,22.1,29.20,NE,45,3.3,3.8,86,0.00,,,-99.99,VWS V12.07,2013-03-11 17:05:00,
2013-03-11 12:10:00,25.7,22.1,29.20,NE,45,6.7,6.7,86,0.00,,,-99.99,VWS V12.07,2013-03-11 17:10:00,
2013-03-11 12:15:00,25.8,22.2,29.20,NE,45,6.2,6.7,86,0.00,,,-99.99,VWS V12.07,2013-03-11 17:15:00,
2013-03-11 12:20:00,25.8,22.2,29.20,NE,45,0.0,2.2,86,0.00,,,-99.99,VWS V12.07,2013-03-11 17:20:00,
2013-03-11 12:25:00,25.8,22.2,29.20,NE,45,0.0,4.6,86,0.00,,,-99.99,VWS V12.07,2013-03-11 17:25:00,
2013-03-11 12:30:00,25.8,21.9,29.20,NE,45,7.6,9.3,85,0.00,,,-99.99,VWS V12.07,2013-03-11 17:30:00,
2013-03-11 12:35:00,25.8,21.9,29.20,NE,45,5.8,5.8,85,0.00,,,-99.99,VWS V12.07,2013-03-11 17:35:00,
2013-03-11 12:40:00,25.8,21.9,29.20,NE,45,0.0,5.8,85,0.00,,,-99.99,VWS V12.07,2013-03-11 17:40:00,
2013-03-11 12:45:00,26.2,22.3,29.19,NE,45,0.0,5.8,85,0.00,,,-99.99,VWS V12.07,2013-03-11 17:45:00,
2013-03-11 12:50:00,26.2,22.3,29.19,NE,45,0.0,3.5,85,0.00,,,-99.99,VWS V12.07,2013-03-11 17:50:00,
2013-03-11 12:55:00,26.2,22.3,29.19,NE,45,7.8,7.8,85,0.00,,,-99.99,VWS V12.07,2013-03-11 17:55:00,
2013-03-11 13:05:00,26.7,22.5,29.20,NE,45,0.0,6.4,84,0.00,,,-99.99,VWS V12.07,2013-03-11 18:05:00,
2013-03-11 13:10:00,26.7,22.5,29.20,NE,45,8.5,8.5,84,0.00,,,-99.99,VWS V12.07,2013-03-11 18:10:00,
2013-03-11 13:15:00,26.7,22.5,29.20,NE,45,3.3,8.5,84,0.00,,,-99.99,VWS V12.07,2013-03-11 18:15:00,
2013-03-11 13:20:00,26.6,22.4,29.20,NE,45,3.1,3.1,84,0.00,,,-99.99,VWS V12.07,2013-03-11 18:20:00,
2013-03-11 13:25:00,26.4,22.0,29.20,NE,45,3.3,3.3,83,0.00,,,-99.99,VWS V12.07,2013-03-11 18:25:00,
2013-03-11 13:30:00,26.4,22.0,29.20,NE,45,0.0,5.5,83,0.00,,,-99.99,VWS V12.07,2013-03-11 18:30:00,
2013-03-11 13:35:00,26.4,22.0,29.20,NE,45,2.6,2.6,83,0.00,,,-99.99,VWS V12.07,2013-03-11 18:35:00,
2013-03-11 13:45:00,26.2,21.8,29.20,NE,45,0.0,2.6,83,0.00,,,-99.99,VWS V12.07,2013-03-11 18:45:00,
2013-03-11 13:50:00,26.2,21.8,29.20,NE,45,9.1,9.1,83,0.00,,,-99.99,VWS V12.07,2013-03-11 18:50:00,
2013-03-11 13:55:00,26.2,21.8,29.20,NE,45,0.0,9.1,83,0.00,,,-99.99,VWS V12.07,2013-03-11 18:55:00,
2013-03-11 14:00:00,26.2,21.8,29.20,NE,45,0.0,9.1,83,0.00,,,-99.99,VWS V12.07,2013-03-11 19:00:00,
2013-03-11 14:10:00,26.2,21.8,29.20,NE,45,0.0,3.8,83,0.00,,,-99.99,VWS V12.07,2013-03-11 19:10:00,
2013-03-11 14:15:00,26.0,21.6,29.19,NE,45,0.0,3.8,83,0.00,,,-99.99,VWS V12.07,2013-03-11 19:15:00,
2013-03-11 14:20:00,25.8,21.1,29.19,NE,45,0.0,0.0,82,0.00,,,-99.99,VWS V12.07,2013-03-11 19:20:00,
2013-03-11 14:25:00,25.8,21.1,29.19,NE,45,0.0,0.4,82,0.00,,,-99.99,VWS V12.07,2013-03-11 19:25:00,
2013-03-11 14:30:00,25.8,21.1,29.19,NE,45,0.0,0.4,82,0.00,,,-99.99,VWS V12.07,2013-03-11 19:30:00,
2013-03-11 14:35:00,25.8,21.1,29.19,NE,45,2.0,2.0,82,0.00,,,-99.99,VWS V12.07,2013-03-11 19:35:00,
2013-03-11 14:40:00,25.8,21.1,29.19,NE,45,0.0,2.0,82,0.00,,,-99.99,VWS V12.07,2013-03-11 19:40:00,
2013-03-11 14:50:00,25.8,21.1,29.19,NE,45,0.0,0.0,82,0.00,,,-99.99,VWS V12.07,2013-03-11 19:50:00,
2013-03-11 14:55:00,25.7,21.3,29.19,NE,45,0.0,0.0,83,0.00,,,-99.99,VWS V12.07,2013-03-11 19:55:00,
2013-03-11 15:00:00,25.7,21.3,29.19,NE,45,0.0,0.0,83,0.00,,,-99.99,VWS V12.07,2013-03-11 20:00:00,
2013-03-11 15:05:00,25.8,21.4,29.19,NE,45,0.0,2.6,83,0.00,,,-99.99,VWS V12.07,2013-03-11 20:05:00,
2013-03-11 15:10:00,25.8,21.4,29.19,NE,45,2.4,2.6,83,0.00,,,-99.99,VWS V12.07,2013-03-11 20:10:00,
2013-03-11 15:15:00,25.7,21.3,29.19,NE,45,0.0,2.6,83,0.00,,,-99.99,VWS V12.07,2013-03-11 20:15:00,
2013-03-11 15:20:00,25.7,21.3,29.19,NE,45,0.0,0.0,83,0.00,,,-99.99,VWS V12.07,2013-03-11 20:20:00,
2013-03-11 15:25:00,25.7,21.3,29.19,NE,45,0.0,5.8,83,0.00,,,-99.99,VWS V12.07,2013-03-11 20:25:00,
2013-03-11 15:30:00,25.8,21.4,29.18,NE,45,0.0,5.8,83,0.00,,,-99.99,VWS V12.07,2013-03-11 20:30:00,
2013-03-11 15:35:00,25.8,21.4,29.18,NE,45,0.0,0.0,83,0.00,,,-99.99,VWS V12.07,2013-03-11 20:35:00,
2013-03-11 15:45:00,25.8,21.4,29.19,NE,45,2.0,5.3,83,0.00,,,-99.99,VWS V12.07,2013-03-11 20:45:00,
2013-03-11 15:50:00,26.2,21.8,29.19,NE,45,0.0,1.5,83,0.00,,,-99.99,VWS V12.07,2013-03-11 20:50:00,
2013-03-11 15:55:00,26.2,21.8,29.19,NE,45,0.0,1.5,83,0.00,,,-99.99,VWS V12.07,2013-03-11 20:55:00,
2013-03-11 16:00:00,26.0,21.6,29.19,NE,45,0.0,1.5,83,0.00,,,-99.99,VWS V12.07,2013-03-11 21:00:00,
2013-03-11 16:05:00,26.2,21.8,29.19,NE,45,1.3,1.3,83,0.00,,,-99.99,VWS V12.07,2013-03-11 21:05:00,
2013-03-11 16:10:00,26.2,21.8,29.19,NE,45,0.0,1.3,83,0.00,,,-99.99,VWS V12.07,2013-03-11 21:10:00,
2013-03-11 16:15:00,26.2,21.8,29.19,NE,45,0.0,1.3,83,0.00,,,-99.99,VWS V12.07,2013-03-11 21:15:00,
2013-03-11 16:20:00,26.0,21.3,29.19,NE,45,0.0,3.8,82,0.00,,,-99.99,VWS V12.07,2013-03-11 21:20:00,
2013-03-11 16:25:00,26.0,21.3,29.19,NE,45,0.0,3.8,82,0.00,,,-99.99,VWS V12.07,2013-03-11 21:25:00,
2013-03-11 16:30:00,26.2,21.5,29.19,NE,45,0.0,3.8,82,0.00,,,-99.99,VWS V12.07,2013-03-11 21:30:00,
2013-03-11 16:35:00,25.8,21.1,29.19,NE,45,1.5,1.5,82,0.00,,,-99.99,VWS V12.07,2013-03-11 21:35:00,
2013-03-11 16:40:00,25.8,21.1,29.19,NE,45,0.0,1.5,82,0.00,,,-99.99,VWS V12.07,2013-03-11 21:40:00,
2013-03-11 16:45:00,25.5,20.5,29.19,NE,45,1.3,1.5,81,0.00,,,-99.99,VWS V12.07,2013-03-11 21:45:00,
2013-03-11 16:50:00,25.3,20.3,29.19,NE,45,0.0,0.0,81,0.00,,,-99.99,VWS V12.07,2013-03-11 21:50:00,
2013-03-11 16:55:00,25.1,20.1,29.19,NE,45,3.1,3.1,81,0.00,,,-99.99,VWS V12.07,2013-03-11 21:55:00,
2013-03-11 17:00:00,24.9,19.9,29.19,NE,45,0.0,3.1,81,0.00,,,-99.99,VWS V12.07,2013-03-11 22:00:00,
2013-03-11 17:10:00,24.6,19.6,29.19,NE,45,0.0,3.3,81,0.00,,,-99.99,VWS V12.07,2013-03-11 22:10:00,
2013-03-11 17:15:00,24.4,19.4,29.19,NE,45,0.0,3.3,81,0.00,,,-99.99,VWS V12.07,2013-03-11 22:15:00,
2013-03-11 17:20:00,24.0,19.3,29.19,NE,45,0.0,2.0,82,0.00,,,-99.99,VWS V12.07,2013-03-11 22:20:00,
2013-03-11 17:25:00,23.9,19.2,29.19,NE,45,0.0,2.0,82,0.00,,,-99.99,VWS V12.07,2013-03-11 22:25:00,
2013-03-11 17:30:00,23.9,19.2,29.19,NE,45,0.0,2.0,82,0.00,,,-99.99,VWS V12.07,2013-03-11 22:30:00,
2013-03-11 17:35:00,23.7,19.0,29.19,NE,45,0.0,0.0,82,0.00,,,-99.99,VWS V12.07,2013-03-11 22:35:00,
2013-03-11 17:40:00,23.5,18.8,29.19,NE,45,0.0,0.0,82,0.00,,,-99.99,VWS V12.07,2013-03-11 22:40:00,
2013-03-11 17:45:00,23.5,19.1,29.19,NE,45,0.0,0.0,83,0.00,,,-99.99,VWS V12.07,2013-03-11 22:45:00,
2013-03-11 17:50:00,23.1,18.4,29.19,NE,45,0.0,1.7,82,0.00,,,-99.99,VWS V12.07,2013-03-11 22:50:00,
2013-03-11 17:55:00,23.1,18.4,29.19,NE,45,0.0,1.7,82,0.00,,,-99.99,VWS V12.07,2013-03-11 22:55:00,
2013-03-11 18:00:00,23.0,18.3,29.19,NE,45,0.0,1.7,82,0.00,,,-99.99,VWS V12.07,2013-03-11 23:00:00,
2013-03-11 18:05:00,22.8,18.1,29.19,NE,45,0.0,0.0,82,0.00,,,-99.99,VWS V12.07,2013-03-11 23:05:00,
2013-03-11 18:10:00,22.8,18.4,29.19,NE,45,0.0,0.0,83,0.00,,,-99.99,VWS V12.07,2013-03-11 23:10:00,
2013-03-11 18:15:00,22.6,18.2,29.20,NE,45,0.0,0.0,83,0.00,,,-99.99,VWS V12.07,2013-03-11 23:15:00,
2013-03-11 18:20:00,22.4,18.0,29.20,NE,45,0.0,0.0,83,0.00,,,-99.99,VWS V12.07,2013-03-11 23:20:00,
2013-03-11 18:25:00,22.4,18.0,29.19,NE,45,0.0,0.0,83,0.00,,,-99.99,VWS V12.07,2013-03-11 23:25:00,
2013-03-11 18:30:00,22.2,17.8,29.20,NE,45,0.0,1.7,83,0.00,,,-99.99,VWS V12.07,2013-03-11 23:30:00,
2013-03-11 18:35:00,22.1,17.7,29.20,NE,45,0.0,0.0,83,0.00,,,-99.99,VWS V12.07,2013-03-11 23:35:00,
2013-03-11 18:40:00,21.9,17.5,29.20,NE,45,0.0,0.0,83,0.00,,,-99.99,VWS V12.07,2013-03-11 23:40:00,
2013-03-11 18:45:00,21.9,17.5,29.20,NE,45,0.0,0.0,83,0.00,,,-99.99,VWS V12.07,2013-03-11 23:45:00,
2013-03-11 18:50:00,21.7,17.3,29.19,NE,45,0.0,0.0,83,0.00,,,-99.99,VWS V12.07,2013-03-11 23:50:00,
2013-03-11 18:55:00,21.5,17.1,29.19,NE,45,0.0,0.0,83,0.00,,,-99.99,VWS V12.07,2013-03-11 23:55:00,
2013-03-11 19:00:00,21.5,17.1,29.20,NE,45,2.0,2.0,83,0.00,,,-99.99,VWS V12.07,2013-03-12 00:00:00,
2013-03-11 19:05:00,21.3,17.0,29.20,NE,45,0.0,0.0,83,0.00,,,-99.99,VWS V12.07,2013-03-12 00:05:00,
2013-03-11 19:10:00,21.3,17.2,29.20,NE,45,0.0,0.0,84,0.00,,,-99.99,VWS V12.07,2013-03-12 00:10:00,
2013-03-11 19:15:00,21.0,16.9,29.20,NE,45,0.0,0.0,84,0.00,,,-99.99,VWS V12.07,2013-03-12 00:15:00,
2013-03-11 19:20:00,21.0,16.9,29.21,NE,45,0.0,0.0,84,0.00,,,-99.99,VWS V12.07,2013-03-12 00:20:00,
2013-03-11 19:25:00,20.8,16.7,29.21,NE,45,0.0,0.0,84,0.00,,,-99.99,VWS V12.07,2013-03-12 00:25:00,
2013-03-11 19:30:00,20.8,16.7,29.21,NE,45,0.0,0.0,84,0.00,,,-99.99,VWS V12.07,2013-03-12 00:30:00,
2013-03-11 19:35:00,20.8,16.7,29.21,NE,45,0.0,0.2,84,0.00,,,-99.99,VWS V12.07,2013-03-12 00:35:00,
2013-03-11 19:40:00,20.4,16.4,29.21,NE,45,0.0,0.2,84,0.00,,,-99.99,VWS V12.07,2013-03-12 00:40:00,
2013-03-11 19:45:00,20.4,16.4,29.22,NE,45,3.3,3.3,84,0.00,,,-99.99,VWS V12.07,2013-03-12 00:45:00,
2013-03-11 19:50:00,20.4,16.4,29.22,NE,45,0.0,0.0,84,0.00,,,-99.99,VWS V12.07,2013-03-12 00:50:00,
2013-03-11 19:55:00,20.3,16.2,29.22,NE,45,0.0,0.0,84,0.00,,,-99.99,VWS V12.07,2013-03-12 00:55:00,
2013-03-11 20:00:00,20.3,16.2,29.23,NE,45,0.0,0.0,84,0.00,,,-99.99,VWS V12.07,2013-03-12 01:00:00,
2013-03-11 20:05:00,20.1,16.0,29.23,NE,45,0.0,0.0,84,0.00,,,-99.99,VWS V12.07,2013-03-12 01:05:00,
2013-03-11 20:10:00,19.9,15.9,29.23,NE,45,0.0,0.0,84,0.00,,,-99.99,VWS V12.07,2013-03-12 01:10:00,
2013-03-11 20:15:00,19.9,15.9,29.24,NE,45,0.0,2.0,84,0.00,,,-99.99,VWS V12.07,2013-03-12 01:15:00,
2013-03-11 20:20:00,19.9,15.9,29.24,NE,45,0.0,2.2,84,0.00,,,-99.99,VWS V12.07,2013-03-12 01:20:00,
2013-03-11 20:25:00,19.7,15.7,29.24,NE,45,0.0,2.2,84,0.00,,,-99.99,VWS V12.07,2013-03-12 01:25:00,
2013-03-11 20:30:00,19.7,15.7,29.24,NE,45,0.0,2.2,84,0.00,,,-99.99,VWS V12.07,2013-03-12 01:30:00,
2013-03-11 20:35:00,19.5,15.5,29.24,NE,45,0.0,0.0,84,0.00,,,-99.99,VWS V12.07,2013-03-12 01:35:00,
2013-03-11 20:40:00,19.5,15.5,29.25,NE,45,0.0,0.0,84,0.00,,,-99.99,VWS V12.07,2013-03-12 01:40:00,
2013-03-11 20:45:00,19.5,15.5,29.25,NE,45,1.1,1.1,84,0.00,,,-99.99,VWS V12.07,2013-03-12 01:45:00,
2013-03-11 20:50:00,19.5,15.5,29.25,NE,45,0.0,0.0,84,0.00,,,-99.99,VWS V12.07,2013-03-12 01:50:00,
2013-03-11 20:55:00,19.4,15.4,29.25,NE,45,0.0,0.0,84,0.00,,,-99.99,VWS V12.07,2013-03-12 01:55:00,
2013-03-11 21:00:00,19.2,15.2,29.26,NE,45,0.0,0.0,84,0.00,,,-99.99,VWS V12.07,2013-03-12 02:00:00,
2013-03-11 21:05:00,19.2,15.2,29.26,NE,45,0.0,0.0,84,0.00,,,-99.99,VWS V12.07,2013-03-12 02:05:00,
2013-03-11 21:10:00,19.2,15.2,29.26,NE,45,0.0,0.0,84,0.00,,,-99.99,VWS V12.07,2013-03-12 02:10:00,
2013-03-11 21:15:00,19.2,15.2,29.26,NE,45,0.0,0.0,84,0.00,,,-99.99,VWS V12.07,2013-03-12 02:15:00,
2013-03-11 21:20:00,19.0,15.0,29.26,NE,45,0.0,0.0,84,0.00,,,-99.99,VWS V12.07,2013-03-12 02:20:00,
2013-03-11 21:25:00,19.0,15.0,29.26,NE,45,0.0,0.0,84,0.00,,,-99.99,VWS V12.07,2013-03-12 02:25:00,
2013-03-11 21:30:00,19.0,15.0,29.26,NE,45,0.0,0.0,84,0.00,,,-99.99,VWS V12.07,2013-03-12 02:30:00,
2013-03-11 21:35:00,18.8,14.8,29.26,NE,45,0.0,0.0,84,0.00,,,-99.99,VWS V12.07,2013-03-12 02:35:00,
2013-03-11 21:40:00,18.6,14.6,29.27,NE,45,0.0,0.0,84,0.00,,,-99.99,VWS V12.07,2013-03-12 02:40:00,
2013-03-11 21:45:00,18.6,14.9,29.27,NE,45,0.0,0.0,85,0.00,,,-99.99,VWS V12.07,2013-03-12 02:45:00,
2013-03-11 21:50:00,18.6,14.9,29.27,NE,45,0.0,0.0,85,0.00,,,-99.99,VWS V12.07,2013-03-12 02:50:00,
2013-03-11 21:55:00,18.6,14.9,29.27,NE,45,0.0,0.0,85,0.00,,,-99.99,VWS V12.07,2013-03-12 02:55:00,
2013-03-11 22:00:00,18.5,14.8,29.27,NE,45,0.0,0.0,85,0.00,,,-99.99,VWS V12.07,2013-03-12 03:00:00,
2013-03-11 22:05:00,18.5,14.8,29.27,NE,45,0.0,0.0,85,0.00,,,-99.99,VWS V12.07,2013-03-12 03:05:00,
2013-03-11 22:10:00,18.5,14.8,29.27,NE,45,0.0,0.0,85,0.00,,,-99.99,VWS V12.07,2013-03-12 03:10:00,
2013-03-11 22:15:00,18.3,14.6,29.27,NE,45,0.0,0.0,85,0.00,,,-99.99,VWS V12.07,2013-03-12 03:15:00,
2013-03-11 22:20:00,18.3,14.6,29.27,NE,45,0.0,0.0,85,0.00,,,-99.99,VWS V12.07,2013-03-12 03:20:00,
2013-03-11 22:25:00,18.3,14.6,29.27,NE,45,0.0,0.0,85,0.00,,,-99.99,VWS V12.07,2013-03-12 03:25:00,
2013-03-11 22:30:00,18.3,14.6,29.26,NE,45,0.0,0.0,85,0.00,,,-99.99,VWS V12.07,2013-03-12 03:30:00,
2013-03-11 22:35:00,18.3,14.6,29.26,NE,45,0.0,0.0,85,0.00,,,-99.99,VWS V12.07,2013-03-12 03:35:00,
2013-03-11 22:45:00,18.3,14.6,29.26,NE,45,0.0,0.0,85,0.00,,,-99.99,VWS V12.07,2013-03-12 03:45:00,
2013-03-11 22:50:00,18.1,14.4,29.26,NE,45,0.0,0.0,85,0.00,,,-99.99,VWS V12.07,2013-03-12 03:50:00,
2013-03-11 22:55:00,18.1,14.4,29.26,NE,45,0.0,0.0,85,0.00,,,-99.99,VWS V12.07,2013-03-12 03:55:00,
2013-03-11 23:00:00,18.1,14.4,29.26,NE,45,0.0,0.0,85,0.00,,,-99.99,VWS V12.07,2013-03-12 04:00:00,
2013-03-11 23:05:00,17.9,14.2,29.26,NE,45,0.0,0.0,85,0.00,,,-99.99,VWS V12.07,2013-03-12 04:05:00,
2013-03-11 23:10:00,17.9,14.2,29.26,NE,45,0.0,0.0,85,0.00,,,-99.99,VWS V12.07,2013-03-12 04:10:00,
2013-03-11 23:15:00,17.9,14.2,29.26,NE,45,0.0,0.0,85,0.00,,,-99.99,VWS V12.07,2013-03-12 04:15:00,
2013-03-11 23:25:00,17.7,14.0,29.27,NE,45,0.0,0.0,85,0.00,,,-99.99,VWS V12.07,2013-03-12 04:25:00,
2013-03-11 23:30:00,17.7,14.0,29.27,NE,45,0.0,0.0,85,0.00,,,-99.99,VWS V12.07,2013-03-12 04:30:00,
2013-03-11 23:35:00,17.7,14.0,29.27,NE,45,0.0,0.0,85,0.00,,,-99.99,VWS V12.07,2013-03-12 04:35:00,
2013-03-11 23:40:00,17.7,14.0,29.27,NE,45,0.0,0.0,85,0.00,,,-99.99,VWS V12.07,2013-03-12 04:40:00,
2013-03-11 23:50:00,17.7,14.0,29.26,NE,45,0.0,0.0,85,0.00,,,-99.99,VWS V12.07,2013-03-12 04:50:00,
2013-03-11 23:55:00,17.7,14.0,29.26,NE,45,0.0,0.0,85,0.00,,,-99.99,VWS V12.07,2013-03-12 04:55:00,